Погода в Тарту

Эстония     58°22′40″N   26°43′44″E
темп.,
°C
ветер,
м/с
пор.,
м/с
влажн.,
%
обл.,
%
осадки,
мм/ч
давл.,
гПа
погр.,
м
9 мая, вс
вс900:000з310830 0.0 1013213
03:00−1з210950 0.0 1015208
06:000з28964 0.0 1016190
09:00+7зюз355913 0.0 1018522
12:00+11зюз4644100 0.0 10181571
15:00+12юз453597 0.0 10181871
18:00+12юз3741100 0.0 10182229
21:00+7ю386499 0.0 1018176
10 мая, пн
пн1000:00+7ююз41068100 0.0 1018795
03:00+7ю51490100 1.9 1017822
06:00+8ююз51482100 0.0 1017528
09:00+11ююз41279100 0.0 1018528
12:00+18ююз595577 0.0 10181164
15:00+21юз594810 0.0 10191886
18:00+21ююз59545 0.0 10191612
21:00+15ю3117597 0.0 1020302
11 мая, вт
вт1100:00+13ю41480100 0.0 1022491
03:00+12ю4138499 0.0 1022411
06:00+11ююв41385100 0.0 1022394
09:00+15ю5116491 0.0 1023592
12:00+19ю694884 0.0 10231003
15:00+21ю584229 0.0 10231428
18:00+20ююв4850100 0.0 10221262
21:00+14юв377485 0.0 1023126
12 мая, ср
ср1200:00+12юв3108539 0.0 1023205
03:00+10юв268974 0.0 1024113
06:00+10юв2684100 0.0 1024139
09:00+16юв35620 0.0 1023386
12:00+20вюв45500 0.0 1023920
15:00+22вюв46450 0.0 10211237
18:00+21в37515 0.0 1020820
21:00+16в3117551 0.0 1019259
13 мая, чт
чт1300:00+13в399259 0.0 1019224
03:00+12вюв269965 0.0 1018165
06:00+11в259935 0.0 1017154
09:00+15в368097 0.0 1015549
12:00+13в379670 5.0 1014364
15:00+15вюв71075100 5.8 10121304
18:00+13юв48815 1.6 1012944
21:00+11юв310855 1.9 1012419